Pratt, KS

4:18 PM CST on November 19, 2017 (GMT -0600)
Pratt Industrial

Weather History for KPTT - May, 2013

Change the Weather History Date:

Friday, May 24, 2013

  Actual Average (KP28) Record (KP28)
Temperature  
Mean Temperature 63 °F -  
Max Temperature 73 °F 80 °F 103 °F (1896)
Min Temperature 53 °F 54 °F 40 °F (2001)
Degree Days  
Heating Degree Days 2    
Growing Degree Days 13 (Base 50)    
Moisture  
Dew Point 59 °F    
Average Humidity 84    
Maximum Humidity 100    
Minimum Humidity 68    
Precipitation  
Precipitation 0.00 in - - ()
Sea Level Pressure  
Sea Level Pressure 30.14 in    
Wind  
Wind Speed 11 mph (SE)    
Max Wind Speed 18 mph    
Max Gust Speed 26 mph    
Visibility 10 miles    
Events      
Averages and records for this station are not official NWS values.
T = Trace of Precipitation, MM = Missing Value Source: NWS Daily Summary

Daily Weather History Graph

Daily Weather History Graph

Search for Another Location

Airport or City:

Trip Planner

Search our weather history database for the weather conditions in past years. The results will help you decide how hot, cold, wet, or windy it might be!

Date:

Astronomy

May. 24, 2013 Rise Set
Actual Time 6:18 AM CDT 8:45 PM CDT
Civil Twilight 5:48 AM CDT 9:15 PM CDT
Nautical Twilight 5:11 AM CDT 9:53 PM CDT
Astronomical Twilight 4:30 AM CDT 10:34 PM CDT
Moon 8:29 PM CDT (5/24) 5:51 AM CDT (5/24)
Length of Visible Light 15h 27m
Length of Day
14h 26m
Full, 100% of the Moon is Illuminated
May 24
Full
May 24
Full
May 31
Last Quarter
Jun 8
New
Jun 16
First Quarter

Hourly Weather History & Observations

Time (CDT) Temp. Dew Point Humidity Pressure Visibility Wind Dir Wind Speed Gust Speed Precip Events Conditions
12:15 AM 59.0 °F 55.4 °F 88% 30.18 in 10.0 mi ESE 5.8 mph - N/A   Clear
12:35 AM 59.0 °F 55.4 °F 88% 30.17 in 10.0 mi ESE 8.1 mph - N/A   Clear
12:55 AM 59.0 °F 55.4 °F 88% 30.17 in 10.0 mi ESE 5.8 mph - N/A   Clear
1:15 AM 59.0 °F 55.4 °F 88% 30.17 in 10.0 mi ESE 6.9 mph - N/A   Clear
1:35 AM 59.0 °F 55.4 °F 88% 30.18 in 10.0 mi ESE 6.9 mph - N/A   Scattered Clouds
1:55 AM 59.0 °F 55.4 °F 88% 30.19 in 10.0 mi ESE 5.8 mph - N/A   Overcast
2:15 AM 59.0 °F 55.4 °F 88% 30.19 in 10.0 mi SE 6.9 mph - N/A   Overcast
2:35 AM 59.0 °F 55.4 °F 88% 30.19 in 10.0 mi ESE 8.1 mph - N/A   Mostly Cloudy
2:55 AM 59.0 °F 55.4 °F 88% 30.19 in 10.0 mi ESE 8.1 mph - N/A   Scattered Clouds
3:15 AM 57.2 °F 53.6 °F 88% 30.18 in 10.0 mi SE 10.4 mph - N/A   Scattered Clouds
3:35 AM 57.2 °F 53.6 °F 88% 30.19 in 10.0 mi SE 10.4 mph - N/A   Mostly Cloudy
3:55 AM 57.2 °F 53.6 °F 88% 30.18 in 10.0 mi SE 11.5 mph - N/A   Scattered Clouds
4:15 AM 55.4 °F 53.6 °F 94% 30.18 in 10.0 mi SE 11.5 mph - N/A   Scattered Clouds
4:35 AM 55.4 °F 53.6 °F 94% 30.18 in 10.0 mi SE 10.4 mph - N/A   Scattered Clouds
4:55 AM 55.4 °F 53.6 °F 94% 30.19 in 10.0 mi SE 9.2 mph - N/A   Mostly Cloudy
5:15 AM 55.4 °F 53.6 °F 94% 30.18 in 10.0 mi ESE 11.5 mph 17.3 mph N/A   Overcast
5:35 AM 55.4 °F 53.6 °F 94% 30.16 in 10.0 mi ESE 11.5 mph 17.3 mph N/A   Overcast
5:55 AM 55.4 °F 53.6 °F 94% 30.17 in 10.0 mi ESE 10.4 mph - N/A   Mostly Cloudy
6:15 AM 55.4 °F 53.6 °F 94% 30.17 in 10.0 mi ESE 9.2 mph - N/A   Mostly Cloudy
6:35 AM 55.4 °F 53.6 °F 94% 30.18 in 10.0 mi ESE 10.4 mph - N/A   Mostly Cloudy
6:55 AM 53.6 °F 53.6 °F 100% 30.17 in 10.0 mi ESE 10.4 mph 16.1 mph N/A   Overcast
7:15 AM 55.4 °F 53.6 °F 94% 30.18 in 10.0 mi SE 11.5 mph - N/A   Mostly Cloudy
7:35 AM 55.4 °F 53.6 °F 94% 30.17 in 10.0 mi SE 12.7 mph 18.4 mph N/A   Mostly Cloudy
7:55 AM 55.4 °F 53.6 °F 94% 30.19 in 10.0 mi SE 12.7 mph 16.1 mph N/A   Mostly Cloudy
8:15 AM 57.2 °F 53.6 °F 88% 30.19 in 10.0 mi SE 12.7 mph - N/A   Mostly Cloudy
8:35 AM 59.0 °F 53.6 °F 82% 30.19 in 10.0 mi SE 15.0 mph - N/A   Scattered Clouds
8:55 AM 59.0 °F 53.6 °F 82% 30.19 in 10.0 mi SE 16.1 mph 20.7 mph N/A   Mostly Cloudy
9:15 AM 60.8 °F 53.6 °F 77% 30.20 in 10.0 mi SE 13.8 mph 19.6 mph N/A   Overcast
9:35 AM 60.8 °F 53.6 °F 77% 30.20 in 10.0 mi SSE 15.0 mph 20.7 mph N/A   Overcast
9:55 AM 60.8 °F 55.4 °F 82% 30.20 in 10.0 mi SSE 16.1 mph - N/A   Overcast
10:15 AM 60.8 °F 55.4 °F 82% 30.21 in 10.0 mi SSE 13.8 mph - N/A   Overcast
10:35 AM 60.8 °F 55.4 °F 82% 30.21 in 10.0 mi SSE 11.5 mph 17.3 mph N/A   Overcast
10:55 AM 60.8 °F 55.4 °F 82% 30.20 in 10.0 mi SSE 10.4 mph - N/A   Overcast
11:15 AM 62.6 °F 55.4 °F 77% 30.20 in 10.0 mi SSE 11.5 mph - N/A   Overcast
11:35 AM 62.6 °F 55.4 °F 77% 30.20 in 10.0 mi SE 13.8 mph - N/A   Overcast
11:55 AM 64.4 °F 57.2 °F 77% 30.20 in 10.0 mi SE 15.0 mph 18.4 mph N/A   Overcast
12:15 PM 66.2 °F 57.2 °F 73% 30.20 in 10.0 mi SSE 15.0 mph - N/A   Overcast
12:35 PM 68.0 °F 59.0 °F 73% 30.18 in 10.0 mi SE 16.1 mph 21.9 mph N/A   Scattered Clouds
12:55 PM 69.8 °F 59.0 °F 68% 30.18 in 10.0 mi SSE 13.8 mph 23.0 mph N/A   Mostly Cloudy
1:15 PM 69.8 °F 60.8 °F 73% 30.17 in 10.0 mi SE 16.1 mph - N/A   Overcast
1:35 PM 69.8 °F 60.8 °F 73% 30.17 in 10.0 mi SSE 13.8 mph 21.9 mph N/A   Overcast
1:55 PM 69.8 °F 60.8 °F 73% 30.16 in 10.0 mi SSE 18.4 mph 23.0 mph N/A   Overcast
2:15 PM 69.8 °F 60.8 °F 73% 30.16 in 10.0 mi SE 15.0 mph - N/A   Overcast
2:35 PM 69.8 °F 60.8 °F 73% 30.17 in 7.0 mi SSE 16.1 mph 20.7 mph N/A   Overcast
2:55 PM 69.8 °F 60.8 °F 73% 30.16 in 7.0 mi SSE 16.1 mph 19.6 mph N/A   Overcast
3:15 PM 69.8 °F 60.8 °F 73% 30.15 in 10.0 mi SE 17.3 mph 21.9 mph N/A   Overcast
3:35 PM 69.8 °F 62.6 °F 78% 30.14 in 7.0 mi SE 13.8 mph 20.7 mph N/A   Overcast
3:55 PM 69.8 °F 62.6 °F 78% 30.13 in 7.0 mi SSE 16.1 mph 20.7 mph N/A   Overcast
4:15 PM 69.8 °F 62.6 °F 78% 30.13 in 10.0 mi SSE 17.3 mph 21.9 mph N/A   Overcast
4:35 PM 71.6 °F 62.6 °F 73% 30.12 in 7.0 mi SSE 16.1 mph 21.9 mph N/A   Overcast
4:55 PM 71.6 °F 62.6 °F 73% 30.10 in 10.0 mi SE 16.1 mph 20.7 mph N/A   Mostly Cloudy
5:15 PM 71.6 °F 64.4 °F 78% 30.10 in 10.0 mi SSE 16.1 mph - N/A   Mostly Cloudy
5:35 PM 71.6 °F 64.4 °F 78% 30.09 in 10.0 mi SSE 16.1 mph - N/A   Overcast
5:55 PM 73.4 °F 64.4 °F 73% 30.08 in 10.0 mi SE 13.8 mph 18.4 mph N/A   Overcast
6:15 PM 73.4 °F 64.4 °F 73% 30.07 in 10.0 mi SE 15.0 mph 23.0 mph N/A   Mostly Cloudy
6:35 PM 73.4 °F 64.4 °F 73% 30.05 in 10.0 mi SE 13.8 mph 20.7 mph N/A   Mostly Cloudy
6:55 PM 73.4 °F 66.2 °F 78% 30.05 in 10.0 mi SE 16.1 mph 21.9 mph N/A   Mostly Cloudy
7:15 PM 73.4 °F 66.2 °F 78% 30.05 in 10.0 mi SE 16.1 mph 21.9 mph N/A   Mostly Cloudy
7:35 PM 73.4 °F 66.2 °F 78% 30.05 in 10.0 mi SE 15.0 mph 21.9 mph N/A   Mostly Cloudy
7:55 PM 73.4 °F 66.2 °F 78% 30.05 in 10.0 mi SSE 17.3 mph 21.9 mph N/A   Mostly Cloudy
8:15 PM 71.6 °F 66.2 °F 83% 30.05 in 7.0 mi SE 15.0 mph 20.7 mph N/A   Mostly Cloudy
8:35 PM 71.6 °F 68.0 °F 88% 30.05 in 7.0 mi SE 16.1 mph 20.7 mph N/A   Scattered Clouds
8:55 PM 71.6 °F 68.0 °F 88% 30.05 in 10.0 mi SSE 15.0 mph - N/A   Scattered Clouds
9:15 PM 71.6 °F 68.0 °F 88% 30.05 in 10.0 mi SSE 15.0 mph 23.0 mph N/A   Mostly Cloudy
9:35 PM 71.6 °F 68.0 °F 88% 30.06 in 10.0 mi SSE 15.0 mph 21.9 mph N/A   Mostly Cloudy
9:55 PM 71.6 °F 68.0 °F 88% 30.07 in 10.0 mi SSE 16.1 mph 21.9 mph N/A   Overcast
10:15 PM 71.6 °F 68.0 °F 88% 30.08 in 10.0 mi SSE 18.4 mph 23.0 mph N/A   Overcast
10:35 PM 71.6 °F 68.0 °F 88% 30.08 in 10.0 mi South 16.1 mph 21.9 mph N/A   Overcast
10:55 PM 71.6 °F 68.0 °F 88% 30.08 in 10.0 mi SSE 18.4 mph 24.2 mph N/A   Overcast
11:15 PM 69.8 °F 68.0 °F 94% 30.09 in 10.0 mi SSE 17.3 mph 26.5 mph N/A   Overcast
11:35 PM 69.8 °F 68.0 °F 94% 30.08 in 10.0 mi SSE 17.3 mph 24.2 mph N/A   Overcast
11:55 PM 69.8 °F 68.0 °F 94% 30.09 in 10.0 mi SSE 13.8 mph 20.7 mph N/A   Overcast